SCP
0 0 0 0 0 0 0 0 0 0 0 0 0 0 0 0 0 0 0 0 0 0 0 0 0 0 0 0 0 0 0 0 0 0 0 0 0 0 0 0 0 0 0
0 0 0 0 0 0 0 0 0 0 0 0 0 0 0 0 0 0 0 0 0 0 0 0 0 0 0 0 0 0 0 0 0 0 0 0 0 0 0 0 0 0 0
0 0 0 0 0 0 0 0 0 0 0 0 0 0 0 0 0 0 0 0 0 0 0 0 0 0 0 0 0 0 0 0 0 0 0 0 0 0 0 0 0 0 0
0 0 0 0 0 0 0 0 0 0 0 0 0 0 0 0 0 0 0 0 0 0 0 0 0 0 0 0 0 0 0 0 0 0 0 0 0 0 0 0 0 0 0
0 0 0 0 0 0 0 0 0 0 0 0 0 0 0 0 0 0 0 0 0 0 0 0 0 0 0 0 0 0 0 0 0 0 0 0 0 0 0 0 0 0 0
0 0 0 0 0 0 0 0 0 0 0 0 0 0 0 0 0 0 0 0 0 0 0 0 0 0 0 0 0 0 0 0 0 0 0 0 0 0 0 0 0 0 0
0 0 0 0 0 0 0 0 0 0 0 0 0 0 0 0 0 0 0 0 0 0 0 0 0 0 0 0 0 0 0 0 0 0 0 0 0 0 0 0 0 0 0
0 0 0 0 0 0 0 0 0 0 0 0 0 0 0 0 0 0 0 0 0 0 0 0 0 0 0 0 0 0 0 0 0 0 0 0 0 0 0 0 0 0 0
0 0 0 0 0 0 0 0 0 0 0 0 0 0 0 0 0 0 0 0 0 0 0 0 0 0 0 0 0 0 0 0 0 0 0 0 0 0 0 0 0 0 0
0 0 0 0 0 0 0 0 0 0 0 0 0 0 0 0 0 0 0 0 0 0 0 0 0 0 0 0 0 0 0 0 0 0 0 0 0 0 0 0 0 0 0
0 0 0 0 0 0 0 0 0 0 0 0 0 0 0 0 0 0 0 0 0 0 0 0 0 0 0 0 0 0 0 0 0 0 0 0 0 0 0 0 0 0 0
0 0 0 0 0 0 0 0 0 0 0 0 0 0 0 0 0 0 0 0 0 0 0 0 0 0 0 0 0 0 0 0 0 0 0 0 0 0 0 0 0 0 0
0 0 0 0 0 0 0 0 0 0 0 0 0 0 0 0 0 0 0 0 0 0 0 0 0 0 0 0 0 0 0 0 0 0 0 0 0 0 0 0 0 0 0
0 0 0 0 0 0 0 0 0 0 0 0 0 0 0 0 0 0 0 0 0 0 0 0 0 0 0 0 0 0 0 0 0 0 0 0 0 0 0 0 0 0 0
0 0 0 0 0 0 0 0 0 0 0 0 0 0 0 0 0 0 0 0 0 0 0 0 0 0 0 0 0 0 0 0 0 0 0 0 0 0 0 0 0 0 0
0 0 0 0 0 0 0 0 0 0 0 0 0 0 0 0 0 0 0 0 0 0 0 0 0 0 0 0 0 0 0 0 0 0 0 0 0 0 0 0 0 0 0
0 0 0 0 0 0 0 0 0 0 0 0 0 0 0 0 0 0 0 0 0 0 0 0 0 0 0 0 0 0 0 0 0 0 0 0 0 0 0 0 0 0 0
0 0 0 0 0 0 0 0 0 0 0 0 0 0 0 0 0 0 0 0 0 0 0 0 0 0 0 0 0 0 0 0 0 0 0 0 0 0 0 0 0 0 0
0 0 0 0 0 0 0 0 0 0 0 0 0 0 0 0 0 0 0 0 0 0 0 0 0 0 0 0 0 0 0 0 0 0 0 0 0 0 0 0 0 0 0
0 0 0 0 0 0 0 0 0 0 0 0 0 0 0 0 0 0 0 0 0 0 0 0 0 0 0 0 0 0 0 0 0 0 0 0 0 0 0 0 0 0 0
0 0 0 0 0 0 0 0 0 0 0 0 0 0 0 0 0 0 0 0 0 0 0 0 0 0 0 0 0 0 0 0 0 0 0 0 0 0 0 0 0 0 0
0 0 0 0 0 0 0 0 0 0 0 0 0 0 0 0 0 0 0 0 0 0 0 0 0 0 0 0 0 0 0 0 0 0 0 0 0 0 0 0 0 0 0
0 0 0 0 0 0 0 0 0 0 0 0 0 0 0 0 0 0 0 0 0 0 0 0 0 0 0 0 0 0 0 0 0 0 0 0 0 0 0 0 0 0 0
0 0 0 0 0 0 0 0 0 0 0 0 0 0 0 0 0 0 0 0 0 0 0 0 0 0 0 0 0 0 0 -0 -0 -0 -0 0 0 0 0 0 0 0 0
0 0 0 0 0 0 0 0 0 0 0 0 0 0 0 0 0 0 0 0 0 0 0 0 0 0 0 0 0 0 0 0 -0 -0 -0 0 0 0 0 0 0 0 0
0 0 0 0 0 0 0 0 0 0 0 0 0 0 0 0 0 0 0 0 0 0 0 0 0 0 0 0 0 0 0 0 0 -0 -0 0 0 0 0 0 0 0 0
Wind_Speed
10 10 10 10 10 10 9 10 10 10 12 12 13 14 15 15 14 13 14 16 16 14 11 11 13 13 11 10 9 9 9 9 11 9 7 8 7 5 3 4 4 5 6
10 10 11 11 11 10 11 11 12 12 11 12 13 14 15 15 15 14 16 17 16 13 10 11 13 11 13 11 9 9 8 8 9 10 7 6 7 5 3 4 3 4 4
11 12 12 12 12 12 12 13 13 12 11 11 12 14 15 16 16 14 15 16 15 10 9 11 13 13 13 11 12 10 8 7 6 7 7 5 4 3 2 2 3 3 3
13 13 13 13 13 14 14 14 14 13 12 11 11 13 14 16 16 14 15 16 12 8 8 9 12 12 12 13 10 10 7 6 6 6 6 5 4 4 2 3 3 3 3
12 13 12 13 13 13 13 14 14 13 14 12 12 13 14 13 13 16 15 13 9 8 8 9 11 15 17 14 11 10 8 4 4 4 4 4 3 3 3 3 4 4 3
11 11 12 12 13 13 13 13 13 12 11 11 12 13 14 14 24 28 19 10 8 8 8 10 11 13 16 19 21 21 19 11 6 3 2 1 2 1 1 3 5 6 4
11 11 11 10 12 12 13 12 11 10 10 10 11 12 13 16 26 27 23 11 9 9 9 9 10 12 15 12 17 20 21 25 21 10 7 6 4 3 2 3 5 6 5
11 10 10 10 11 11 10 10 10 9 9 8 9 11 12 16 26 26 23 12 9 10 10 10 10 12 15 16 14 14 15 17 19 13 11 10 10 7 3 3 4 6 7
9 10 10 10 10 11 10 10 9 8 8 8 9 11 12 15 24 25 21 8 9 10 11 12 12 12 24 24 16 14 14 14 19 23 23 22 24 24 14 2 5 9 8
11 12 11 11 10 10 10 10 9 8 9 10 10 10 11 11 22 26 21 8 9 9 9 11 19 21 25 25 15 14 15 14 14 15 17 19 18 20 24 13 4 5 8
11 12 11 10 10 9 9 8 9 9 9 10 10 10 10 14 20 26 23 9 9 9 8 8 11 25 26 26 21 15 18 14 12 13 12 13 13 13 15 14 13 7 6
11 11 11 10 10 10 8 8 8 8 9 9 9 9 8 10 17 21 25 20 15 9 8 7 11 24 25 26 20 23 25 18 10 11 12 13 13 13 11 12 14 13 12
12 11 11 11 8 8 8 7 7 7 7 8 8 9 8 8 11 23 24 23 22 10 9 18 20 23 20 17 24 26 19 12 11 12 12 12 11 11 10 10 11 12 15
11 10 10 9 9 8 7 7 7 7 7 7 8 8 7 7 7 7 8 10 14 12 10 15 19 21 17 18 18 15 12 12 12 11 10 10 9 10 11 11 10 9 11
10 9 9 9 8 8 8 8 10 6 10 7 5 6 7 6 12 18 12 8 7 10 9 7 8 9 10 10 10 10 10 11 11 10 10 10 10 10 11 10 10 10 11
9 9 7 7 7 7 6 7 15 17 19 17 15 12 9 14 18 18 18 19 20 20 11 7 8 9 10 10 10 10 10 10 10 9 9 9 9 9 9 9 10 10 10
9 8 7 8 7 8 8 8 8 11 17 17 17 16 14 14 15 16 16 17 18 16 8 6 6 6 7 7 7 7 7 8 7 8 8 8 8 8 8 9 9 9 9
8 10 9 5 6 6 6 6 6 7 7 6 10 16 16 14 13 13 14 11 7 7 4 4 4 4 4 5 5 5 5 5 5 5 6 6 7 7 7 7 7 8 8
7 6 5 5 5 5 5 5 5 6 6 6 5 8 14 14 13 12 10 4 3 3 3 3 3 3 3 3 3 4 4 4 4 4 4 5 5 5 6 6 6 11 9
6 14 12 6 5 5 5 5 5 5 5 5 5 5 5 6 4 5 4 3 3 3 3 3 3 3 2 2 3 3 3 3 3 3 3 3 4 4 4 5 5 5 5
5 8 14 8 5 5 5 5 5 5 5 5 5 8 13 4 4 5 4 4 3 3 3 3 3 3 2 2 2 2 3 2 2 2 2 2 2 2 2 3 3 3 3
5 5 5 5 5 6 6 5 5 5 6 7 6 8 14 6 5 5 5 5 4 3 3 3 3 3 3 2 2 2 2 2 2 1 1 1 1 1 1 1 2 2 2
5 6 6 6 6 11 9 7 6 6 7 7 7 8 7 6 6 6 6 5 5 4 4 4 4 4 4 3 3 3 3 3 2 2 1 1 1 1 1 1 1 0 0
5 6 6 7 7 7 8 9 8 9 9 8 8 8 8 8 8 9 8 7 6 6 5 5 5 6 8 6 4 4 4 4 4 3 4 4 3 2 2 2 2 2 2
5 5 6 6 8 8 9 9 10 10 10 10 9 9 9 9 9 9 9 8 9 8 9 8 6 7 9 9 7 6 9 12 10 6 5 5 5 5 4 4 3 3 3
5 5 5 6 7 8 8 9 10 11 10 11 11 10 10 10 10 9 9 9 9 9 9 8 9 10 11 9 10 12 15 15 14 13 6 5 6 5 5 5 6 5 4
Wind_Direction
334 329 325 323 324 325 323 322 322 320 323 325 327 328 328 326 326 321 320 318 315 311 313 316 312 309 302 295 284 270 252 242 250 261 268 277 284 274 227 184 184 192 200
332 327 324 324 326 325 323 323 322 320 321 325 328 328 327 327 323 320 319 319 315 313 317 319 316 314 310 303 296 286 272 256 247 254 259 265 266 256 228 196 184 182 182
332 328 326 327 326 326 325 324 322 319 320 325 328 327 326 324 320 317 317 315 313 311 317 320 318 316 314 311 305 295 281 270 256 251 254 255 261 257 236 196 164 152 151
332 328 327 326 327 325 324 323 321 322 323 325 326 325 322 319 314 312 316 316 314 310 315 320 321 318 319 319 313 309 295 275 262 253 248 247 244 244 208 178 162 145 137
328 324 322 322 321 320 321 322 323 324 325 323 323 320 317 317 315 319 319 323 318 316 322 329 329 335 343 348 343 345 336 310 279 252 242 237 228 210 202 178 163 142 125
317 314 316 319 322 324 324 326 326 323 321 322 320 318 317 321 322 328 337 334 334 335 337 341 343 349 360 3 8 13 15 14 356 333 298 275 262 250 214 180 157 154 149
309 309 313 317 322 325 327 325 323 321 321 320 318 317 316 317 330 338 351 1 353 351 357 359 0 2 18 12 12 17 17 22 27 24 28 19 358 334 290 210 182 159 137
311 316 321 322 322 323 322 321 321 319 319 315 318 321 322 327 339 348 2 6 359 4 7 8 11 11 28 27 18 20 20 18 20 24 27 20 13 359 309 240 170 126 103
326 331 328 325 325 326 328 328 328 325 322 322 324 325 327 331 343 359 12 2 6 10 11 16 24 25 32 32 23 22 23 18 15 24 28 29 26 25 23 36 142 146 133
336 332 327 327 328 329 334 334 333 332 335 334 333 330 332 337 352 4 19 14 15 18 17 10 23 34 33 35 27 22 27 18 13 15 20 22 24 24 28 25 17 133 128
333 329 328 330 330 335 337 336 336 340 340 338 338 339 345 355 357 6 20 29 26 25 23 12 19 31 33 35 35 29 31 27 18 20 20 21 22 25 25 27 28 41 86
332 332 332 333 338 348 342 340 341 344 344 343 345 351 355 354 3 7 15 28 37 25 19 13 24 33 32 33 35 33 32 29 23 25 25 23 21 19 20 27 37 44 49
335 335 335 336 342 345 345 344 344 346 348 354 356 356 359 3 3 16 18 20 25 28 18 27 31 34 32 28 30 32 30 28 25 28 27 24 18 16 19 24 31 43 48
335 337 339 341 345 346 349 349 349 348 352 2 358 355 358 357 358 9 8 12 18 24 22 23 27 29 32 29 29 28 25 29 30 26 24 22 20 23 26 26 31 34 48
334 338 341 344 343 347 352 353 356 353 6 11 353 352 2 360 15 22 24 17 19 35 31 21 21 22 24 24 25 26 25 24 27 24 22 23 25 29 30 29 35 44 53
339 343 344 345 347 348 347 351 1 5 9 13 14 16 8 17 20 21 23 28 36 38 35 25 26 23 23 22 22 22 23 25 23 24 23 23 26 28 31 33 40 46 51
335 340 344 347 346 351 354 354 352 356 6 8 8 9 11 10 14 15 22 26 30 34 32 21 21 20 19 18 16 16 19 19 18 23 24 22 25 29 35 38 39 45 51
330 340 349 333 336 341 347 349 349 349 348 349 355 359 0 1 3 9 18 22 15 21 14 15 13 10 11 11 9 8 8 14 14 18 20 20 23 28 33 35 39 46 50
331 330 335 330 331 333 335 338 339 341 339 334 332 343 353 353 355 359 9 9 348 352 355 358 359 359 359 1 0 360 360 6 12 14 20 19 20 27 31 29 36 52 56
328 340 349 339 328 327 327 328 328 327 325 323 324 320 324 338 333 334 337 324 329 329 334 338 334 337 342 348 346 349 351 358 10 18 16 19 18 25 32 35 35 41 45
319 326 340 337 322 319 319 319 317 316 315 317 314 320 335 336 318 312 310 308 303 300 300 303 307 312 313 317 330 338 341 340 352 1 9 19 21 25 26 32 33 42 50
317 315 317 317 321 324 329 321 315 311 311 313 310 314 325 321 299 296 294 293 288 281 275 271 269 271 269 262 262 279 299 308 318 338 347 348 354 0 15 32 37 35 42
321 319 321 322 325 334 337 323 319 317 314 310 307 308 307 301 293 288 284 278 272 271 268 263 259 259 259 252 243 235 239 247 242 222 239 273 273 262 242 214 199 172 50
324 324 326 330 334 336 334 332 329 327 323 317 313 306 298 291 288 286 282 274 267 262 256 254 252 250 253 252 244 234 227 232 224 215 218 224 235 239 233 222 215 208 206
326 329 332 335 339 338 336 334 333 334 333 332 328 320 312 303 292 284 277 272 268 264 259 252 249 248 249 247 242 235 252 262 259 239 210 210 218 219 220 223 217 212 205
329 335 336 337 338 337 335 334 334 335 336 337 336 333 327 320 311 301 290 279 270 263 260 254 245 242 242 242 243 248 258 258 258 258 231 204 212 217 214 217 214 213 207